Voltar ao catálogo

STARLINK-4485

AtivoComunicaçõesVLEO
NORAD 53541·PAYLOAD·🇺🇸 United States

Lançado Aug 19, 2022 de Cape Canaveral Space Force Station

Loading…

Próximas Passagens (próximas 24 horas)

TLE

AtualizadoSource: CelesTrak SupGP

Época: Sep 15, 2026, 02:15 UTC

1 53541C 22101Q   26258.09423611  .00031057  00000+0  19467-2 0  2585
2 53541  53.1600 303.2214 0001092  94.5150 248.6071 15.08836328    19

Acompanhe STARLINK-4485 em tempo real com AllMySat

Download on the App Store